Theta_e
316 316 315 315 316 315 314 313 309 302 304 308 308 308 309 309 315 310 314 317 318 317 316 316 317 318 320 321 323 325 327 329 332 335 337 337 338 339
315 315 316 316 315 314 314 314 313 308 303 309 305 307 306 307 310 307 309 312 314 315 315 315 315 316 317 319 320 321 323 326 327 331 333 334 335 336
314 314 312 314 312 314 314 314 313 311 307 306 306 307 305 304 303 304 305 304 307 313 313 314 313 313 315 316 317 319 321 324 325 327 330 331 332 334
310 311 311 313 311 313 314 313 312 312 308 302 304 303 303 304 303 302 303 303 304 310 310 311 312 312 313 313 314 315 319 321 322 324 327 328 329 332
309 310 310 310 310 312 312 310 310 311 310 304 301 304 303 305 303 303 301 301 302 307 307 308 309 310 310 312 313 314 314 317 316 318 322 324 326 327
309 310 310 308 308 310 310 310 310 309 307 304 304 304 304 304 304 301 299 299 299 302 304 306 307 308 308 309 313 316 313 313 313 312 314 314 316 319
308 308 310 310 310 309 309 309 309 307 306 304 302 301 300 300 300 302 301 300 299 299 299 301 301 302 304 306 309 313 312 310 309 309 309 309 310 312
308 307 308 309 310 309 308 308 307 306 304 302 302 300 300 300 300 299 299 297 293 299 297 298 300 299 302 304 306 307 306 308 308 307 307 306 307 308
309 307 305 307 307 309 308 308 307 307 307 306 303 302 300 300 299 297 296 295 294 297 298 295 299 297 300 303 305 304 304 304 304 304 304 303 303 303
311 310 308 307 305 305 306 306 304 302 303 306 306 301 301 302 301 300 299 298 299 300 300 292 297 296 299 300 303 303 302 302 302 303 303 302 301 301
312 309 310 309 301 301 305 304 302 301 302 302 300 300 299 300 301 302 301 302 295 294 297 295 295 295 297 297 300 301 301 300 300 301 302 301 300 301
314 309 304 305 300 299 307 308 305 302 301 301 300 300 300 301 302 302 303 302 297 294 298 297 296 297 294 298 297 298 299 300 299 299 300 300 300 300
311 311 312 302 301 302 299 311 308 307 306 306 304 303 304 305 306 306 309 307 304 302 304 303 298 299 296 294 295 297 299 299 300 300 298 299 300 300
312 312 312 301 302 302 304 302 302 302 307 306 305 304 303 305 306 307 308 307 308 306 307 308 303 299 295 294 294 296 297 299 301 301 301 299 301 300
314 309 302 300 301 305 305 301 301 311 311 306 304 304 305 309 308 308 307 307 307 308 309 308 305 305 302 298 295 296 296 298 300 301 301 300 301 299
308 310 308 305 303 306 306 310 313 313 310 311 306 308 309 309 309 308 305 305 302 303 306 307 307 304 302 301 301 299 301 299 300 300 301 303 303 304
300 312 315 315 312 314 315 314 312 311 311 311 309 310 309 309 307 309 307 305 301 300 301 304 308 309 305 304 301 302 302 303 304 304 304 303 304 305
307 311 313 314 313 314 312 311 310 309 312 311 310 309 308 307 307 308 308 305 303 303 303 303 304 302 304 305 307 304 304 304 305 305 305 304 302 307
307 312 313 315 315 314 311 311 310 312 313 311 309 310 309 308 307 307 308 307 305 305 305 305 305 304 300 298 302 307 305 305 304 305 307 309 307 306
308 313 315 316 316 315 312 314 311 311 311 311 310 310 310 308 307 307 307 308 308 307 306 308 308 309 304 300 301 304 302 308 305 304 305 307 305 305
314 317 317 316 317 317 315 312 313 311 310 312 310 310 312 309 309 309 306 299 298 307 306 307 308 294 309 308 302 302 305 300 304 307 308 306 305 304
317 317 316 314 319 318 313 313 313 310 311 311 309 308 308 312 310 310 309 309 309 308 306 305 308 309 308 307 304 302 303 305 303 302 303 305 307 304
316 317 315 317 318 316 317 315 311 312 313 311 312 310 313 311 311 312 311 310 310 307 308 306 308 311 310 310 303 306 307 306 305 301 301 301 300 300
Wind_Speed
8 7 4 3 2 3 2 2 1 2 2 4 3 8 5 5 9 8 7 21 17 13 7 8 11 10 9 11 10 11 13 12 11 10 11 12 13 15
8 9 4 2 3 4 3 2 2 2 1 3 4 3 5 3 8 7 7 11 19 16 13 9 7 10 11 12 14 16 16 14 12 11 12 12 12 12
12 9 8 7 4 3 3 2 2 1 2 2 3 4 4 4 6 6 6 7 6 15 16 16 14 10 8 13 15 17 17 16 14 12 11 11 12 12
12 11 10 6 7 6 4 4 4 4 5 6 4 3 3 4 6 6 5 6 6 15 15 15 17 15 12 7 13 16 16 16 13 12 12 11 12 12
11 12 11 11 10 6 5 5 5 3 5 5 2 1 2 2 1 2 6 6 6 15 16 17 16 17 16 14 6 11 17 16 15 12 12 11 11 9
10 10 11 11 11 9 6 5 3 4 5 4 2 1 2 1 2 1 3 5 6 6 14 17 16 19 21 18 13 7 15 14 13 8 8 8 8 9
6 8 9 14 17 16 6 8 7 6 5 5 4 3 2 2 2 1 1 1 5 8 7 10 8 9 13 18 15 14 11 9 10 11 12 13 14 16
9 10 7 11 9 13 17 20 14 6 7 4 3 3 2 2 3 3 3 3 4 5 7 10 9 10 10 11 22 23 21 17 19 20 20 18 18 19
8 7 7 7 12 9 9 10 12 11 10 4 3 3 2 3 2 3 5 4 3 3 2 7 8 10 10 12 25 26 25 23 21 25 25 23 21 19
6 5 5 5 7 7 8 7 8 7 7 4 6 4 3 2 2 2 1 1 2 3 0 5 6 8 9 11 28 27 27 27 25 23 24 26 24 25
4 4 5 6 7 6 4 3 5 5 7 10 8 7 6 6 4 1 1 2 3 1 2 3 3 6 7 9 11 25 25 27 28 26 25 23 24 23
5 4 6 4 5 4 3 3 3 2 1 2 1 1 3 5 8 4 4 3 2 1 3 2 4 2 4 4 7 7 8 18 21 20 22 18 16 10
4 6 4 10 9 6 3 5 0 3 6 5 5 4 4 6 5 4 3 4 2 3 4 3 2 2 4 4 2 3 4 4 4 6 10 4 9 10
5 4 4 10 12 11 6 4 8 6 4 6 4 1 2 2 2 3 4 5 4 4 4 3 4 6 4 5 4 4 2 4 3 2 3 5 7 6
4 8 10 10 11 8 11 9 7 2 2 4 3 3 3 3 4 3 3 4 4 3 4 5 4 4 5 4 4 4 4 5 4 3 5 7 5 4
6 7 9 5 9 8 6 6 5 2 2 2 4 4 4 4 4 4 4 3 3 3 6 5 3 4 3 4 4 6 6 5 6 6 4 4 5 6
8 6 5 5 2 4 4 3 3 3 3 3 4 3 5 6 3 4 4 4 4 3 2 3 2 4 5 5 3 3 3 4 5 6 5 4 5 6
4 6 6 4 4 4 4 4 4 5 4 5 2 3 4 3 0 1 3 4 4 4 4 2 2 2 0 1 1 4 3 3 3 3 2 3 3 5
5 7 6 4 4 4 4 3 3 4 2 4 4 4 4 1 1 1 2 4 4 5 5 5 4 4 4 4 1 2 3 4 4 3 5 5 5 6
6 7 6 4 5 4 3 1 2 1 1 2 3 3 0 2 2 3 2 2 2 2 3 4 3 3 5 5 4 3 5 2 4 4 4 3 2 4
8 5 4 4 5 4 2 3 3 3 2 1 1 3 4 3 3 4 3 3 2 3 2 3 2 4 2 5 4 2 3 10 6 3 1 1 3 2
10 5 5 4 6 4 2 3 3 4 3 2 1 1 2 3 2 4 5 4 4 2 4 3 2 1 1 3 5 5 4 4 7 10 9 7 3 2
8 4 6 4 4 5 3 2 4 5 3 3 3 2 4 4 4 5 5 5 5 3 4 3 4 4 5 4 5 4 7 7 4 4 7 13 16 17
Wind_Direction
325 315 277 294 278 276 270 233 224 303 0 56 69 45 358 352 17 32 15 39 42 39 5 312 291 277 253 257 258 253 255 244 241 243 220 217 217 213
346 349 356 28 16 344 316 273 217 227 37 30 68 54 358 9 23 22 26 31 29 23 28 14 332 297 276 261 244 245 246 240 236 238 224 213 214 211
4 13 28 30 15 340 339 34 339 27 105 100 83 44 27 19 22 18 27 29 13 23 23 13 20 0 304 265 254 242 239 233 225 227 227 208 207 205
10 18 22 7 6 4 11 29 42 18 114 112 62 21 25 39 36 26 13 35 16 23 28 20 22 20 13 303 258 245 233 221 212 219 214 201 202 199
17 16 25 19 16 2 38 28 24 50 58 75 95 34 46 19 66 56 27 16 18 23 15 17 23 24 21 16 327 241 229 220 219 211 206 191 196 186
22 20 28 29 20 13 29 6 355 69 92 95 91 91 51 6 89 10 33 34 20 11 19 21 17 22 26 21 15 242 207 197 208 209 186 164 163 158
32 31 26 44 45 44 32 17 40 62 65 66 58 52 28 9 4 342 139 66 38 17 8 16 11 18 20 22 23 62 104 116 122 115 115 114 110 113
40 34 34 25 46 60 58 53 43 52 68 75 57 51 30 20 14 354 358 19 3 7 3 19 12 24 26 28 37 58 70 88 97 97 92 92 97 108
48 58 42 27 16 24 39 60 57 52 55 40 62 45 61 23 21 45 46 78 89 287 16 29 2 27 21 31 43 54 64 73 84 93 93 90 90 93
51 65 51 31 26 6 349 37 53 39 17 34 57 64 82 105 92 78 60 96 208 256 199 56 6 36 20 32 36 49 58 65 70 77 90 91 86 83
91 33 32 29 3 357 323 59 47 49 61 83 86 105 129 149 179 284 200 218 97 36 346 112 193 68 37 35 32 46 49 51 54 57 62 71 81 81
126 149 71 37 346 4 328 228 150 169 141 139 129 188 218 247 242 240 292 279 147 200 209 155 197 174 61 16 45 39 44 50 53 56 55 49 66 88
27 23 31 358 350 348 349 235 161 172 209 238 224 215 220 244 245 207 268 9 127 80 151 200 190 43 77 129 95 78 80 33 45 59 67 62 105 110
22 15 335 334 324 318 325 276 264 250 218 224 204 93 83 105 69 72 50 35 27 54 317 234 149 133 123 130 134 155 131 106 49 117 146 172 183 167
350 321 282 294 300 295 292 291 296 257 350 157 151 173 206 147 146 135 110 92 35 1 359 34 110 141 138 135 140 174 145 194 183 237 169 183 168 151
7 311 293 264 266 270 294 280 283 246 301 224 199 204 199 199 207 193 180 159 97 22 346 351 324 124 114 122 144 165 195 153 180 188 205 176 164 173
321 298 296 320 279 264 267 252 294 297 318 264 253 222 172 199 221 149 151 142 137 162 246 281 285 140 135 158 172 156 134 150 178 187 181 188 199 194
299 295 293 319 310 244 232 195 228 277 286 292 6 89 83 69 319 86 147 147 149 156 140 213 153 140 138 41 137 143 164 157 143 169 233 199 222 220
254 284 289 292 297 278 224 235 302 151 295 340 336 75 47 7 49 342 283 166 185 171 179 185 192 192 177 146 203 109 145 137 163 220 223 215 189 208
244 257 289 296 276 270 213 178 185 116 259 288 108 104 312 103 317 306 338 19 312 187 189 186 173 250 160 167 160 209 164 159 181 225 243 262 134 156
276 264 259 248 260 224 238 216 204 179 215 10 20 27 31 2 296 308 17 290 304 302 272 88 143 225 23 81 93 154 222 220 204 195 265 245 224 211
283 273 272 256 240 182 156 210 214 195 191 233 223 126 258 288 288 332 313 307 299 119 120 150 197 222 330 224 177 178 196 224 234 240 223 221 188 212
262 245 287 255 212 179 192 218 213 235 178 174 65 251 235 238 220 244 245 269 263 174 161 174 198 207 230 227 177 183 179 189 190 222 255 236 231 248